FENGYUN1
1 25730U 99025A   10321.77004085  .00001241  00000-0  74797-3 0  1863
2 25730 098.8009 282.8356 0019944 190.5913 169.4838 14.08411828593308
OKEAN-0
1 25860U 99039A   10321.86880324  .00000206  00000-0  39018-4 0  1521
2 25860 097.8548 289.5255 0000989 043.0483 317.0802 14.73683626609538
NOAA-16
1 26536U 00055A   10321.57720590 -.00000270  00000-0 -12071-3 0 00732
2 26536 099.1633 342.6065 0009809 267.1249 092.8798 14.12583666523485
NOAA-17
1 27453U 02032A   10321.71538265  .00000153  00000-0  84405-4 0 00650
2 27453 098.4118 005.8191 0012504 051.5692 308.6594 14.24210158436554
NOAA-18
1 28654U 05018A   10321.78080918  .00000158  00000-0  11189-3 0 05552
2 28654 098.9686 267.7280 0014168 343.9187 016.1556 14.11408388283106
NOAA-19
1 33591U 09005A   10321.73146201  .00000211  00000-0  14124-3 0 07500
2 33591 098.8044 260.6912 0013617 212.0490 147.9848 14.11104471091564
HUBBLE
1 20580U 90037B   10322.23800227  .00000811  00000-0  49095-4 0  6770
2 20580 028.4711 314.0931 0003174 044.1313 315.9453 15.01096561927925
ISS
1 25544U 98067A   10322.29145833  .00018412  00000-0  13679-3 0  2980
2 25544 051.6439 161.9899 0007603 212.9096 126.3632 15.72878646687703
CO-58
1 28895U 05043F   10321.36809098  .00000222  00000-0  55552-4 0 07309
2 28895 097.9922 200.5774 0018322 161.7705 198.4144 14.59964909269330
FALCON
1 30776U 07006E   10321.91277533  .00001382  00000-0  10109-3 0 09662
2 30776 035.4332 190.8141 0001019 012.9237 347.1507 15.03957103203213
MAST
1 31126U 07012K   10321.65502011  .00000113  00000-0  35563-4 0 00161
2 31126 097.9211 355.5899 0095405 108.5570 252.6013 14.53642888190353
CAPE1
1 31130U 07012P   10322.61231242  .00000551  00000-0  13665-3 0   342
2 31130 097.9224 353.6098 0104406 115.1847 246.0233 14.52254493190075
COMPASS
1 32787U 08021E   10321.30311006  .00000967  00000-0  12811-3 0 08334
2 32787 097.8759 023.8147 0016054 143.6072 216.6219 14.82046205138177
AAUSAT2
1 32788U 08021F   10321.69596646  .00001061  00000-0  13941-3 0  8221
2 32788 097.8775 024.3666 0015996 143.2394 216.9907 14.82201405138245
DO-64
1 32789U 08021G   10321.68573126  .00001603  00000-0  20615-3 0 08407
2 32789 097.8853 025.0182 0016161 142.1017 218.1332 14.82438597138249
CO-66
1 32791U 08021J   10322.15889224  .00001001  00000-0  13318-3 0  8248
2 32791 097.8788 024.6503 0016567 139.7771 220.4675 14.81805108138252
RS-30
1 32953U 08025A   10321.94431816  .00000010  00000-0  00000 0 0  2230
2 32953 082.4994 294.0655 0019784 123.9214 236.3751 12.43009179112841
TACSAT-3
1 35001U 09028A   10321.54306924  .00009732  00000-0  21414-3 0 04449
2 35001 040.4553 011.8194 0021264 071.0230 289.2888 15.43644042084329
PHARMSAT
1 35002U 09028B   10321.51784220  .00008813  00000-0  19202-3 0 04111
2 35002 040.4683 009.5445 0023523 074.2577 286.0831 15.43969320084340
HAWKSAT1
1 35003U 09028C   10321.48804981  .00021529  00000-0  38527-3 0 04452
2 35003 040.4571 358.8917 0021924 096.8620 263.4693 15.49157243084460
CP6
1 35004U 09028D   10321.49908971  .00027799  00000-0  46734-3 0 04463
2 35004 040.4607 356.2878 0021029 104.0231 256.2930 15.50837301084483
AEROCUB3
1 35005U 09028E   10322.41035837  .00202057  00000-0  14375-2 0  5265
2 35005 040.4649 334.0078 0023167 143.7968 216.4434 15.72052859 84813
METEOR-M
1 35865U 09049A   10322.74070770  .00000176  00000-0  10000-3 0  8468
2 35865 098.7388 015.2733 0002080 301.4013 058.6925 14.21832913 60684
RS-38
1 35869U 09049E   10322.83590043  .00000177  00000-0  10000-3 0  8586
2 35869 098.7370 015.4079 0003966 286.4939 073.5776 14.21993676 60704
